Index of /20260506/WXO-DD/model_rdps/10km/06/030
Name Last modified Size Description
Parent Directory -
20260506T06Z_MSC_RDPS_AbsoluteVorticity_IsbL-0250_RLatLon0.09_PT030H.grib2 2026-05-06 08:49 593K
20260506T06Z_MSC_RDPS_AbsoluteVorticity_IsbL-0500_RLatLon0.09_PT030H.grib2 2026-05-06 08:49 679K
20260506T06Z_MSC_RDPS_AbsoluteVorticity_IsbL-0700_RLatLon0.09_PT030H.grib2 2026-05-06 08:49 608K
20260506T06Z_MSC_RDPS_AbsoluteVorticity_IsbL-0850_RLatLon0.09_PT030H.grib2 2026-05-06 08:49 788K
20260506T06Z_MSC_RDPS_AirTemp_AGL-120m_RLatLon0.09_PT030H.grib2 2026-05-06 08:49 383K
20260506T06Z_MSC_RDPS_AirTemp_AGL-2m_RLatLon0.09_PT030H.grib2 2026-05-06 08:49 629K
20260506T06Z_MSC_RDPS_AirTemp_AGL-40m_RLatLon0.09_PT030H.grib2 2026-05-06 08:49 400K
20260506T06Z_MSC_RDPS_AirTemp_AGL-80m_RLatLon0.09_PT030H.grib2 2026-05-06 08:49 391K
20260506T06Z_MSC_RDPS_AirTemp_IsbL-0001_RLatLon0.09_PT030H.grib2 2026-05-06 08:49 312K
20260506T06Z_MSC_RDPS_AirTemp_IsbL-0005_RLatLon0.09_PT030H.grib2 2026-05-06 08:49 288K
20260506T06Z_MSC_RDPS_AirTemp_IsbL-0010_RLatLon0.09_PT030H.grib2 2026-05-06 08:49 393K
20260506T06Z_MSC_RDPS_AirTemp_IsbL-0020_RLatLon0.09_PT030H.grib2 2026-05-06 08:49 321K
20260506T06Z_MSC_RDPS_AirTemp_IsbL-0030_RLatLon0.09_PT030H.grib2 2026-05-06 08:49 336K
20260506T06Z_MSC_RDPS_AirTemp_IsbL-0050_RLatLon0.09_PT030H.grib2 2026-05-06 08:49 310K
20260506T06Z_MSC_RDPS_AirTemp_IsbL-0100_RLatLon0.09_PT030H.grib2 2026-05-06 08:49 420K
20260506T06Z_MSC_RDPS_AirTemp_IsbL-0150_RLatLon0.09_PT030H.grib2 2026-05-06 08:49 406K
20260506T06Z_MSC_RDPS_AirTemp_IsbL-0175_RLatLon0.09_PT030H.grib2 2026-05-06 08:49 398K
20260506T06Z_MSC_RDPS_AirTemp_IsbL-0200_RLatLon0.09_PT030H.grib2 2026-05-06 08:49 407K
20260506T06Z_MSC_RDPS_AirTemp_IsbL-0225_RLatLon0.09_PT030H.grib2 2026-05-06 08:49 409K
20260506T06Z_MSC_RDPS_AirTemp_IsbL-0250_RLatLon0.09_PT030H.grib2 2026-05-06 08:49 415K
20260506T06Z_MSC_RDPS_AirTemp_IsbL-0275_RLatLon0.09_PT030H.grib2 2026-05-06 08:49 397K
20260506T06Z_MSC_RDPS_AirTemp_IsbL-0300_RLatLon0.09_PT030H.grib2 2026-05-06 08:49 404K
20260506T06Z_MSC_RDPS_AirTemp_IsbL-0350_RLatLon0.09_PT030H.grib2 2026-05-06 08:49 420K
20260506T06Z_MSC_RDPS_AirTemp_IsbL-0400_RLatLon0.09_PT030H.grib2 2026-05-06 08:49 422K
20260506T06Z_MSC_RDPS_AirTemp_IsbL-0450_RLatLon0.09_PT030H.grib2 2026-05-06 08:49 429K
20260506T06Z_MSC_RDPS_AirTemp_IsbL-0500_RLatLon0.09_PT030H.grib2 2026-05-06 08:49 404K
20260506T06Z_MSC_RDPS_AirTemp_IsbL-0550_RLatLon0.09_PT030H.grib2 2026-05-06 08:49 420K
20260506T06Z_MSC_RDPS_AirTemp_IsbL-0600_RLatLon0.09_PT030H.grib2 2026-05-06 08:49 435K
20260506T06Z_MSC_RDPS_AirTemp_IsbL-0650_RLatLon0.09_PT030H.grib2 2026-05-06 08:49 450K
20260506T06Z_MSC_RDPS_AirTemp_IsbL-0700_RLatLon0.09_PT030H.grib2 2026-05-06 08:49 476K
20260506T06Z_MSC_RDPS_AirTemp_IsbL-0750_RLatLon0.09_PT030H.grib2 2026-05-06 08:49 520K
20260506T06Z_MSC_RDPS_AirTemp_IsbL-0800_RLatLon0.09_PT030H.grib2 2026-05-06 08:49 575K
20260506T06Z_MSC_RDPS_AirTemp_IsbL-0850_RLatLon0.09_PT030H.grib2 2026-05-06 08:49 634K
20260506T06Z_MSC_RDPS_AirTemp_IsbL-0875_RLatLon0.09_PT030H.grib2 2026-05-06 08:49 524K
20260506T06Z_MSC_RDPS_AirTemp_IsbL-0900_RLatLon0.09_PT030H.grib2 2026-05-06 08:49 531K
20260506T06Z_MSC_RDPS_AirTemp_IsbL-0925_RLatLon0.09_PT030H.grib2 2026-05-06 08:49 532K
20260506T06Z_MSC_RDPS_AirTemp_IsbL-0950_RLatLon0.09_PT030H.grib2 2026-05-06 08:49 531K
20260506T06Z_MSC_RDPS_AirTemp_IsbL-0970_RLatLon0.09_PT030H.grib2 2026-05-06 08:49 526K
20260506T06Z_MSC_RDPS_AirTemp_IsbL-0985_RLatLon0.09_PT030H.grib2 2026-05-06 08:49 513K
20260506T06Z_MSC_RDPS_AirTemp_IsbL-1000_RLatLon0.09_PT030H.grib2 2026-05-06 08:49 497K
20260506T06Z_MSC_RDPS_AirTemp_IsbL-1015_RLatLon0.09_PT030H.grib2 2026-05-06 08:49 496K
20260506T06Z_MSC_RDPS_Albedo_Sfc_RLatLon0.09_PT030H.grib2 2026-05-06 08:49 151K
20260506T06Z_MSC_RDPS_CAPE_Sfc_RLatLon0.09_PT030H.grib2 2026-05-06 08:49 1.7M
20260506T06Z_MSC_RDPS_CIN_Sfc_RLatLon0.09_PT030H.grib2 2026-05-06 08:49 1.1M
20260506T06Z_MSC_RDPS_CloudWater_EAtm_RLatLon0.09_PT030H.grib2 2026-05-06 08:49 223K
20260506T06Z_MSC_RDPS_ConvectivePrecip-Accum_Sfc_RLatLon0.09_PT030H.grib2 2026-05-06 08:49 862K
20260506T06Z_MSC_RDPS_DewPointDepression_AGL-2m_RLatLon0.09_PT030H.grib2 2026-05-06 08:49 405K
20260506T06Z_MSC_RDPS_DewPointDepression_IsbL-0001_RLatLon0.09_PT030H.grib2 2026-05-06 08:49 193
20260506T06Z_MSC_RDPS_DewPointDepression_IsbL-0005_RLatLon0.09_PT030H.grib2 2026-05-06 08:49 193
20260506T06Z_MSC_RDPS_DewPointDepression_IsbL-0010_RLatLon0.09_PT030H.grib2 2026-05-06 08:49 193
20260506T06Z_MSC_RDPS_DewPointDepression_IsbL-0020_RLatLon0.09_PT030H.grib2 2026-05-06 08:49 193
20260506T06Z_MSC_RDPS_DewPointDepression_IsbL-0030_RLatLon0.09_PT030H.grib2 2026-05-06 08:49 193
20260506T06Z_MSC_RDPS_DewPointDepression_IsbL-0050_RLatLon0.09_PT030H.grib2 2026-05-06 08:49 111K
20260506T06Z_MSC_RDPS_DewPointDepression_IsbL-0100_RLatLon0.09_PT030H.grib2 2026-05-06 08:49 113K
20260506T06Z_MSC_RDPS_DewPointDepression_IsbL-0150_RLatLon0.09_PT030H.grib2 2026-05-06 08:49 131K
20260506T06Z_MSC_RDPS_DewPointDepression_IsbL-0175_RLatLon0.09_PT030H.grib2 2026-05-06 08:49 169K
20260506T06Z_MSC_RDPS_DewPointDepression_IsbL-0200_RLatLon0.09_PT030H.grib2 2026-05-06 08:49 212K
20260506T06Z_MSC_RDPS_DewPointDepression_IsbL-0225_RLatLon0.09_PT030H.grib2 2026-05-06 08:49 246K
20260506T06Z_MSC_RDPS_DewPointDepression_IsbL-0250_RLatLon0.09_PT030H.grib2 2026-05-06 08:49 291K
20260506T06Z_MSC_RDPS_DewPointDepression_IsbL-0275_RLatLon0.09_PT030H.grib2 2026-05-06 08:49 305K
20260506T06Z_MSC_RDPS_DewPointDepression_IsbL-0300_RLatLon0.09_PT030H.grib2 2026-05-06 08:49 323K
20260506T06Z_MSC_RDPS_DewPointDepression_IsbL-0350_RLatLon0.09_PT030H.grib2 2026-05-06 08:49 330K
20260506T06Z_MSC_RDPS_DewPointDepression_IsbL-0400_RLatLon0.09_PT030H.grib2 2026-05-06 08:49 337K
20260506T06Z_MSC_RDPS_DewPointDepression_IsbL-0450_RLatLon0.09_PT030H.grib2 2026-05-06 08:49 341K
20260506T06Z_MSC_RDPS_DewPointDepression_IsbL-0500_RLatLon0.09_PT030H.grib2 2026-05-06 08:49 346K
20260506T06Z_MSC_RDPS_DewPointDepression_IsbL-0550_RLatLon0.09_PT030H.grib2 2026-05-06 08:49 357K
20260506T06Z_MSC_RDPS_DewPointDepression_IsbL-0600_RLatLon0.09_PT030H.grib2 2026-05-06 08:49 364K
20260506T06Z_MSC_RDPS_DewPointDepression_IsbL-0650_RLatLon0.09_PT030H.grib2 2026-05-06 08:49 365K
20260506T06Z_MSC_RDPS_DewPointDepression_IsbL-0700_RLatLon0.09_PT030H.grib2 2026-05-06 08:49 374K
20260506T06Z_MSC_RDPS_DewPointDepression_IsbL-0750_RLatLon0.09_PT030H.grib2 2026-05-06 08:49 401K
20260506T06Z_MSC_RDPS_DewPointDepression_IsbL-0800_RLatLon0.09_PT030H.grib2 2026-05-06 08:49 447K
20260506T06Z_MSC_RDPS_DewPointDepression_IsbL-0850_RLatLon0.09_PT030H.grib2 2026-05-06 08:49 480K
20260506T06Z_MSC_RDPS_DewPointDepression_IsbL-0875_RLatLon0.09_PT030H.grib2 2026-05-06 08:49 477K
20260506T06Z_MSC_RDPS_DewPointDepression_IsbL-0900_RLatLon0.09_PT030H.grib2 2026-05-06 08:49 466K
20260506T06Z_MSC_RDPS_DewPointDepression_IsbL-0925_RLatLon0.09_PT030H.grib2 2026-05-06 08:49 454K
20260506T06Z_MSC_RDPS_DewPointDepression_IsbL-0950_RLatLon0.09_PT030H.grib2 2026-05-06 08:49 446K
20260506T06Z_MSC_RDPS_DewPointDepression_IsbL-0970_RLatLon0.09_PT030H.grib2 2026-05-06 08:49 441K
20260506T06Z_MSC_RDPS_DewPointDepression_IsbL-0985_RLatLon0.09_PT030H.grib2 2026-05-06 08:49 438K
20260506T06Z_MSC_RDPS_DewPointDepression_IsbL-1000_RLatLon0.09_PT030H.grib2 2026-05-06 08:49 436K
20260506T06Z_MSC_RDPS_DewPointDepression_IsbL-1015_RLatLon0.09_PT030H.grib2 2026-05-06 08:49 425K
20260506T06Z_MSC_RDPS_DewPoint_AGL-2m_RLatLon0.09_PT030H.grib2 2026-05-06 08:49 401K
20260506T06Z_MSC_RDPS_DownwardLongwaveRadiationFlux-Accum_Sfc_RLatLon0.09_PT030H.grib2 2026-05-06 08:49 479K
20260506T06Z_MSC_RDPS_DownwardShortwaveRadiationFlux-Accum_NTAtm_RLatLon0.09_PT030H.grib2 2026-05-06 08:49 104K
20260506T06Z_MSC_RDPS_DownwardShortwaveRadiationFlux-Accum_Sfc_RLatLon0.09_PT030H.grib2 2026-05-06 08:49 664K
20260506T06Z_MSC_RDPS_FreezingRain-Accum12h_Sfc_RLatLon0.09_PT030H.grib2 2026-05-06 08:49 94K
20260506T06Z_MSC_RDPS_FreezingRain-Accum1h_Sfc_RLatLon0.09_PT030H.grib2 2026-05-06 08:49 38K
20260506T06Z_MSC_RDPS_FreezingRain-Accum24h_Sfc_RLatLon0.09_PT030H.grib2 2026-05-06 08:49 117K
20260506T06Z_MSC_RDPS_FreezingRain-Accum3h_Sfc_RLatLon0.09_PT030H.grib2 2026-05-06 08:49 47K
20260506T06Z_MSC_RDPS_FreezingRain-Accum6h_Sfc_RLatLon0.09_PT030H.grib2 2026-05-06 08:49 73K
20260506T06Z_MSC_RDPS_FreezingRain-Accum_Sfc_RLatLon0.09_PT030H.grib2 2026-05-06 08:49 148K
20260506T06Z_MSC_RDPS_GeopotentialHeight_IsbL-0001_RLatLon0.09_PT030H.grib2 2026-05-06 08:49 243K
20260506T06Z_MSC_RDPS_GeopotentialHeight_IsbL-0005_RLatLon0.09_PT030H.grib2 2026-05-06 08:49 341K
20260506T06Z_MSC_RDPS_GeopotentialHeight_IsbL-0010_RLatLon0.09_PT030H.grib2 2026-05-06 08:49 341K
20260506T06Z_MSC_RDPS_GeopotentialHeight_IsbL-0020_RLatLon0.09_PT030H.grib2 2026-05-06 08:49 309K
20260506T06Z_MSC_RDPS_GeopotentialHeight_IsbL-0030_RLatLon0.09_PT030H.grib2 2026-05-06 08:49 311K
20260506T06Z_MSC_RDPS_GeopotentialHeight_IsbL-0050_RLatLon0.09_PT030H.grib2 2026-05-06 08:49 311K
20260506T06Z_MSC_RDPS_GeopotentialHeight_IsbL-0100_RLatLon0.09_PT030H.grib2 2026-05-06 08:49 286K
20260506T06Z_MSC_RDPS_GeopotentialHeight_IsbL-0150_RLatLon0.09_PT030H.grib2 2026-05-06 08:49 228K
20260506T06Z_MSC_RDPS_GeopotentialHeight_IsbL-0175_RLatLon0.09_PT030H.grib2 2026-05-06 08:49 231K
20260506T06Z_MSC_RDPS_GeopotentialHeight_IsbL-0200_RLatLon0.09_PT030H.grib2 2026-05-06 08:49 234K
20260506T06Z_MSC_RDPS_GeopotentialHeight_IsbL-0225_RLatLon0.09_PT030H.grib2 2026-05-06 08:49 235K
20260506T06Z_MSC_RDPS_GeopotentialHeight_IsbL-0250_RLatLon0.09_PT030H.grib2 2026-05-06 08:49 237K
20260506T06Z_MSC_RDPS_GeopotentialHeight_IsbL-0275_RLatLon0.09_PT030H.grib2 2026-05-06 08:49 236K
20260506T06Z_MSC_RDPS_GeopotentialHeight_IsbL-0300_RLatLon0.09_PT030H.grib2 2026-05-06 08:49 236K
20260506T06Z_MSC_RDPS_GeopotentialHeight_IsbL-0350_RLatLon0.09_PT030H.grib2 2026-05-06 08:49 232K
20260506T06Z_MSC_RDPS_GeopotentialHeight_IsbL-0400_RLatLon0.09_PT030H.grib2 2026-05-06 08:49 229K
20260506T06Z_MSC_RDPS_GeopotentialHeight_IsbL-0450_RLatLon0.09_PT030H.grib2 2026-05-06 08:49 297K
20260506T06Z_MSC_RDPS_GeopotentialHeight_IsbL-0500_RLatLon0.09_PT030H.grib2 2026-05-06 08:49 291K
20260506T06Z_MSC_RDPS_GeopotentialHeight_IsbL-0550_RLatLon0.09_PT030H.grib2 2026-05-06 08:49 286K
20260506T06Z_MSC_RDPS_GeopotentialHeight_IsbL-0600_RLatLon0.09_PT030H.grib2 2026-05-06 08:49 282K
20260506T06Z_MSC_RDPS_GeopotentialHeight_IsbL-0650_RLatLon0.09_PT030H.grib2 2026-05-06 08:49 253K
20260506T06Z_MSC_RDPS_GeopotentialHeight_IsbL-0700_RLatLon0.09_PT030H.grib2 2026-05-06 08:49 333K
20260506T06Z_MSC_RDPS_GeopotentialHeight_IsbL-0750_RLatLon0.09_PT030H.grib2 2026-05-06 08:49 336K
20260506T06Z_MSC_RDPS_GeopotentialHeight_IsbL-0800_RLatLon0.09_PT030H.grib2 2026-05-06 08:49 378K
20260506T06Z_MSC_RDPS_GeopotentialHeight_IsbL-0850_RLatLon0.09_PT030H.grib2 2026-05-06 08:49 389K
20260506T06Z_MSC_RDPS_GeopotentialHeight_IsbL-0875_RLatLon0.09_PT030H.grib2 2026-05-06 08:49 392K
20260506T06Z_MSC_RDPS_GeopotentialHeight_IsbL-0900_RLatLon0.09_PT030H.grib2 2026-05-06 08:49 394K
20260506T06Z_MSC_RDPS_GeopotentialHeight_IsbL-0925_RLatLon0.09_PT030H.grib2 2026-05-06 08:49 397K
20260506T06Z_MSC_RDPS_GeopotentialHeight_IsbL-0950_RLatLon0.09_PT030H.grib2 2026-05-06 08:49 400K
20260506T06Z_MSC_RDPS_GeopotentialHeight_IsbL-0970_RLatLon0.09_PT030H.grib2 2026-05-06 08:49 406K
20260506T06Z_MSC_RDPS_GeopotentialHeight_IsbL-0985_RLatLon0.09_PT030H.grib2 2026-05-06 08:49 415K
20260506T06Z_MSC_RDPS_GeopotentialHeight_IsbL-1000_RLatLon0.09_PT030H.grib2 2026-05-06 08:49 428K
20260506T06Z_MSC_RDPS_GeopotentialHeight_IsbL-1015_RLatLon0.09_PT030H.grib2 2026-05-06 08:49 444K
20260506T06Z_MSC_RDPS_HighLowPressure_MSL_RLatLon0.09_PT030H.json 2026-05-06 08:40 22K
20260506T06Z_MSC_RDPS_Humidex_Sfc_RLatLon0.09_PT030H.grib2 2026-05-06 08:49 2.4M
20260506T06Z_MSC_RDPS_IcePellets-Accum12h_Sfc_RLatLon0.09_PT030H.grib2 2026-05-06 08:49 9.7K
20260506T06Z_MSC_RDPS_IcePellets-Accum1h_Sfc_RLatLon0.09_PT030H.grib2 2026-05-06 08:49 6.1K
20260506T06Z_MSC_RDPS_IcePellets-Accum24h_Sfc_RLatLon0.09_PT030H.grib2 2026-05-06 08:49 14K
20260506T06Z_MSC_RDPS_IcePellets-Accum3h_Sfc_RLatLon0.09_PT030H.grib2 2026-05-06 08:49 6.5K
20260506T06Z_MSC_RDPS_IcePellets-Accum6h_Sfc_RLatLon0.09_PT030H.grib2 2026-05-06 08:49 8.2K
20260506T06Z_MSC_RDPS_IcePellets-Accum_Sfc_RLatLon0.09_PT030H.grib2 2026-05-06 08:49 19K
20260506T06Z_MSC_RDPS_KIndex_Sfc_RLatLon0.09_PT030H.grib2 2026-05-06 08:49 2.5M
20260506T06Z_MSC_RDPS_LatentHeatNetFlux_Sfc_RLatLon0.09_PT030H.grib2 2026-05-06 08:49 334K
20260506T06Z_MSC_RDPS_LiftedIndex-MU-VT_IsbL-0500_RLatLon0.09_PT030H.grib2 2026-05-06 08:49 2.4M
20260506T06Z_MSC_RDPS_NetLongwaveRadiationFlux-Accum_Sfc_RLatLon0.09_PT030H.grib2 2026-05-06 08:49 618K
20260506T06Z_MSC_RDPS_NetShortwaveRadiationFlux-Accum_Sfc_RLatLon0.09_PT030H.grib2 2026-05-06 08:49 659K
20260506T06Z_MSC_RDPS_PlanetaryBoundaryLayerHeight_Sfc_RLatLon0.09_PT030H.grib2 2026-05-06 08:49 1.1M
20260506T06Z_MSC_RDPS_Precip-Accum12h_Sfc_RLatLon0.09_PT030H.grib2 2026-05-06 08:49 1.6M
20260506T06Z_MSC_RDPS_Precip-Accum1h_Sfc_RLatLon0.09_PT030H.grib2 2026-05-06 08:49 1.4M
20260506T06Z_MSC_RDPS_Precip-Accum24h_Sfc_RLatLon0.09_PT030H.grib2 2026-05-06 08:49 1.8M
20260506T06Z_MSC_RDPS_Precip-Accum3h_Sfc_RLatLon0.09_PT030H.grib2 2026-05-06 08:49 1.5M
20260506T06Z_MSC_RDPS_Precip-Accum6h_Sfc_RLatLon0.09_PT030H.grib2 2026-05-06 08:49 1.6M
20260506T06Z_MSC_RDPS_Precip-Accum_Sfc_RLatLon0.09_PT030H.grib2 2026-05-06 08:49 1.9M
20260506T06Z_MSC_RDPS_PrecipRate_Sfc_RLatLon0.09_PT030H.grib2 2026-05-06 08:49 200K
20260506T06Z_MSC_RDPS_PrecipType-Instant_Sfc_RLatLon0.09_PT030H.grib2 2026-05-06 08:49 610K
20260506T06Z_MSC_RDPS_Pressure-Trend3h_Sfc_RLatLon0.09_PT030H.grib2 2026-05-06 08:49 1.2M
20260506T06Z_MSC_RDPS_Pressure_MSL_RLatLon0.09_PT030H.grib2 2026-05-06 08:49 292K
20260506T06Z_MSC_RDPS_Pressure_PVU-1.5_RLatLon0.09_PT030H.grib2 2026-05-06 08:49 2.5M
20260506T06Z_MSC_RDPS_Pressure_PVU-1_RLatLon0.09_PT030H.grib2 2026-05-06 08:49 2.4M
20260506T06Z_MSC_RDPS_Pressure_PVU-2_RLatLon0.09_PT030H.grib2 2026-05-06 08:49 2.4M
20260506T06Z_MSC_RDPS_Pressure_Sfc_RLatLon0.09_PT030H.grib2 2026-05-06 08:49 499K
20260506T06Z_MSC_RDPS_RadiativeTemp_Sfc_RLatLon0.09_PT030H.grib2 2026-05-06 08:49 389K
20260506T06Z_MSC_RDPS_Rain-Accum12h_Sfc_RLatLon0.09_PT030H.grib2 2026-05-06 08:49 1.1M
20260506T06Z_MSC_RDPS_Rain-Accum1h_Sfc_RLatLon0.09_PT030H.grib2 2026-05-06 08:49 700K
20260506T06Z_MSC_RDPS_Rain-Accum24h_Sfc_RLatLon0.09_PT030H.grib2 2026-05-06 08:49 1.4M
20260506T06Z_MSC_RDPS_Rain-Accum3h_Sfc_RLatLon0.09_PT030H.grib2 2026-05-06 08:49 784K
20260506T06Z_MSC_RDPS_Rain-Accum6h_Sfc_RLatLon0.09_PT030H.grib2 2026-05-06 08:49 1.0M
20260506T06Z_MSC_RDPS_Rain-Accum_Sfc_RLatLon0.09_PT030H.grib2 2026-05-06 08:49 1.5M
20260506T06Z_MSC_RDPS_RelativeHumidity_AGL-2m_RLatLon0.09_PT030H.grib2 2026-05-06 08:49 1.0M
20260506T06Z_MSC_RDPS_RelativeHumidity_IsbL-0010_RLatLon0.09_PT030H.grib2 2026-05-06 08:49 716K
20260506T06Z_MSC_RDPS_RelativeHumidity_IsbL-0020_RLatLon0.09_PT030H.grib2 2026-05-06 08:49 664K
20260506T06Z_MSC_RDPS_RelativeHumidity_IsbL-0030_RLatLon0.09_PT030H.grib2 2026-05-06 08:49 603K
20260506T06Z_MSC_RDPS_RelativeHumidity_IsbL-0050_RLatLon0.09_PT030H.grib2 2026-05-06 08:49 353K
20260506T06Z_MSC_RDPS_RelativeHumidity_IsbL-0100_RLatLon0.09_PT030H.grib2 2026-05-06 08:49 277K
20260506T06Z_MSC_RDPS_RelativeHumidity_IsbL-0150_RLatLon0.09_PT030H.grib2 2026-05-06 08:49 399K
20260506T06Z_MSC_RDPS_RelativeHumidity_IsbL-0175_RLatLon0.09_PT030H.grib2 2026-05-06 08:49 454K
20260506T06Z_MSC_RDPS_RelativeHumidity_IsbL-0200_RLatLon0.09_PT030H.grib2 2026-05-06 08:49 531K
20260506T06Z_MSC_RDPS_RelativeHumidity_IsbL-0225_RLatLon0.09_PT030H.grib2 2026-05-06 08:49 600K
20260506T06Z_MSC_RDPS_RelativeHumidity_IsbL-0250_RLatLon0.09_PT030H.grib2 2026-05-06 08:49 661K
20260506T06Z_MSC_RDPS_RelativeHumidity_IsbL-0275_RLatLon0.09_PT030H.grib2 2026-05-06 08:49 692K
20260506T06Z_MSC_RDPS_RelativeHumidity_IsbL-0300_RLatLon0.09_PT030H.grib2 2026-05-06 08:49 740K
20260506T06Z_MSC_RDPS_RelativeHumidity_IsbL-0350_RLatLon0.09_PT030H.grib2 2026-05-06 08:49 762K
20260506T06Z_MSC_RDPS_RelativeHumidity_IsbL-0400_RLatLon0.09_PT030H.grib2 2026-05-06 08:49 778K
20260506T06Z_MSC_RDPS_RelativeHumidity_IsbL-0450_RLatLon0.09_PT030H.grib2 2026-05-06 08:49 785K
20260506T06Z_MSC_RDPS_RelativeHumidity_IsbL-0500_RLatLon0.09_PT030H.grib2 2026-05-06 08:49 792K
20260506T06Z_MSC_RDPS_RelativeHumidity_IsbL-0550_RLatLon0.09_PT030H.grib2 2026-05-06 08:49 811K
20260506T06Z_MSC_RDPS_RelativeHumidity_IsbL-0600_RLatLon0.09_PT030H.grib2 2026-05-06 08:49 829K
20260506T06Z_MSC_RDPS_RelativeHumidity_IsbL-0650_RLatLon0.09_PT030H.grib2 2026-05-06 08:49 835K
20260506T06Z_MSC_RDPS_RelativeHumidity_IsbL-0700_RLatLon0.09_PT030H.grib2 2026-05-06 08:49 858K
20260506T06Z_MSC_RDPS_RelativeHumidity_IsbL-0750_RLatLon0.09_PT030H.grib2 2026-05-06 08:49 916K
20260506T06Z_MSC_RDPS_RelativeHumidity_IsbL-0800_RLatLon0.09_PT030H.grib2 2026-05-06 08:49 1.0M
20260506T06Z_MSC_RDPS_RelativeHumidity_IsbL-0850_RLatLon0.09_PT030H.grib2 2026-05-06 08:49 1.0M
20260506T06Z_MSC_RDPS_RelativeHumidity_IsbL-0875_RLatLon0.09_PT030H.grib2 2026-05-06 08:49 1.1M
20260506T06Z_MSC_RDPS_RelativeHumidity_IsbL-0900_RLatLon0.09_PT030H.grib2 2026-05-06 08:49 1.1M
20260506T06Z_MSC_RDPS_RelativeHumidity_IsbL-0925_RLatLon0.09_PT030H.grib2 2026-05-06 08:49 1.1M
20260506T06Z_MSC_RDPS_RelativeHumidity_IsbL-0950_RLatLon0.09_PT030H.grib2 2026-05-06 08:49 1.1M
20260506T06Z_MSC_RDPS_RelativeHumidity_IsbL-0970_RLatLon0.09_PT030H.grib2 2026-05-06 08:49 1.1M
20260506T06Z_MSC_RDPS_RelativeHumidity_IsbL-0985_RLatLon0.09_PT030H.grib2 2026-05-06 08:49 1.1M
20260506T06Z_MSC_RDPS_RelativeHumidity_IsbL-1000_RLatLon0.09_PT030H.grib2 2026-05-06 08:49 1.0M
20260506T06Z_MSC_RDPS_RelativeHumidity_IsbL-1015_RLatLon0.09_PT030H.grib2 2026-05-06 08:49 1.0M
20260506T06Z_MSC_RDPS_Runoff-Accum_Sfc_RLatLon0.09_PT030H.grib2 2026-05-06 08:49 59K
20260506T06Z_MSC_RDPS_SWEATIndex_Sfc_RLatLon0.09_PT030H.grib2 2026-05-06 08:49 2.4M
20260506T06Z_MSC_RDPS_SeeingIndex_EAtm_RLatLon0.09_PT030H.grib2 2026-05-06 08:49 1.0M
20260506T06Z_MSC_RDPS_SensibleHeatNetFlux_Sfc_RLatLon0.09_PT030H.grib2 2026-05-06 08:49 304K
20260506T06Z_MSC_RDPS_ShowalterIndex_IsbL-0500_RLatLon0.09_PT030H.grib2 2026-05-06 08:49 2.6M
20260506T06Z_MSC_RDPS_SkyTransparencyIndex_EAtm_RLatLon0.09_PT030H.grib2 2026-05-06 08:49 732K
20260506T06Z_MSC_RDPS_Snow-Accum12h_Sfc_RLatLon0.09_PT030H.grib2 2026-05-06 08:49 551K
20260506T06Z_MSC_RDPS_Snow-Accum1h_Sfc_RLatLon0.09_PT030H.grib2 2026-05-06 08:49 521K
20260506T06Z_MSC_RDPS_Snow-Accum24h_Sfc_RLatLon0.09_PT030H.grib2 2026-05-06 08:49 639K
20260506T06Z_MSC_RDPS_Snow-Accum3h_Sfc_RLatLon0.09_PT030H.grib2 2026-05-06 08:49 480K
20260506T06Z_MSC_RDPS_Snow-Accum6h_Sfc_RLatLon0.09_PT030H.grib2 2026-05-06 08:49 574K
20260506T06Z_MSC_RDPS_Snow-Accum_Sfc_RLatLon0.09_PT030H.grib2 2026-05-06 08:49 714K
20260506T06Z_MSC_RDPS_SnowDensity_Sfc_RLatLon0.09_PT030H.grib2 2026-05-06 08:49 174K
20260506T06Z_MSC_RDPS_SnowDepth_Sfc_RLatLon0.09_PT030H.grib2 2026-05-06 08:49 646K
20260506T06Z_MSC_RDPS_SoilTemp_DBS-0to10cm_RLatLon0.09_PT030H.grib2 2026-05-06 08:49 226K
20260506T06Z_MSC_RDPS_SoilTemp_Sfc_RLatLon0.09_PT030H.grib2 2026-05-06 08:49 271K
20260506T06Z_MSC_RDPS_SoilVolumetricIceContent_Sfc_RLatLon0.09_PT030H.grib2 2026-05-06 08:49 150K
20260506T06Z_MSC_RDPS_SoilVolumetricWaterContent_DBS-0to10cm_RLatLon0.09_PT030H.grib2 2026-05-06 08:49 282K
20260506T06Z_MSC_RDPS_SoilVolumetricWaterContent_DBS-0to1cm_RLatLon0.09_PT030H.grib2 2026-05-06 08:49 340K
20260506T06Z_MSC_RDPS_SpecificHumidity_AGL-120m_RLatLon0.09_PT030H.grib2 2026-05-06 08:49 505K
20260506T06Z_MSC_RDPS_SpecificHumidity_AGL-2m_RLatLon0.09_PT030H.grib2 2026-05-06 08:49 670K
20260506T06Z_MSC_RDPS_SpecificHumidity_AGL-40m_RLatLon0.09_PT030H.grib2 2026-05-06 08:49 510K
20260506T06Z_MSC_RDPS_SpecificHumidity_AGL-80m_RLatLon0.09_PT030H.grib2 2026-05-06 08:49 507K
20260506T06Z_MSC_RDPS_SpecificHumidity_IsbL-0001_RLatLon0.09_PT030H.grib2 2026-05-06 08:49 308K
20260506T06Z_MSC_RDPS_SpecificHumidity_IsbL-0005_RLatLon0.09_PT030H.grib2 2026-05-06 08:49 377K
20260506T06Z_MSC_RDPS_SpecificHumidity_IsbL-0010_RLatLon0.09_PT030H.grib2 2026-05-06 08:49 409K
20260506T06Z_MSC_RDPS_SpecificHumidity_IsbL-0020_RLatLon0.09_PT030H.grib2 2026-05-06 08:49 388K
20260506T06Z_MSC_RDPS_SpecificHumidity_IsbL-0030_RLatLon0.09_PT030H.grib2 2026-05-06 08:49 372K
20260506T06Z_MSC_RDPS_SpecificHumidity_IsbL-0050_RLatLon0.09_PT030H.grib2 2026-05-06 08:49 482K
20260506T06Z_MSC_RDPS_SpecificHumidity_IsbL-0100_RLatLon0.09_PT030H.grib2 2026-05-06 08:49 419K
20260506T06Z_MSC_RDPS_SpecificHumidity_IsbL-0150_RLatLon0.09_PT030H.grib2 2026-05-06 08:49 442K
20260506T06Z_MSC_RDPS_SpecificHumidity_IsbL-0175_RLatLon0.09_PT030H.grib2 2026-05-06 08:49 424K
20260506T06Z_MSC_RDPS_SpecificHumidity_IsbL-0200_RLatLon0.09_PT030H.grib2 2026-05-06 08:49 439K
20260506T06Z_MSC_RDPS_SpecificHumidity_IsbL-0225_RLatLon0.09_PT030H.grib2 2026-05-06 08:49 441K
20260506T06Z_MSC_RDPS_SpecificHumidity_IsbL-0250_RLatLon0.09_PT030H.grib2 2026-05-06 08:49 542K
20260506T06Z_MSC_RDPS_SpecificHumidity_IsbL-0275_RLatLon0.09_PT030H.grib2 2026-05-06 08:49 462K
20260506T06Z_MSC_RDPS_SpecificHumidity_IsbL-0300_RLatLon0.09_PT030H.grib2 2026-05-06 08:49 536K
20260506T06Z_MSC_RDPS_SpecificHumidity_IsbL-0350_RLatLon0.09_PT030H.grib2 2026-05-06 08:49 529K
20260506T06Z_MSC_RDPS_SpecificHumidity_IsbL-0400_RLatLon0.09_PT030H.grib2 2026-05-06 08:49 511K
20260506T06Z_MSC_RDPS_SpecificHumidity_IsbL-0450_RLatLon0.09_PT030H.grib2 2026-05-06 08:49 565K
20260506T06Z_MSC_RDPS_SpecificHumidity_IsbL-0500_RLatLon0.09_PT030H.grib2 2026-05-06 08:49 500K
20260506T06Z_MSC_RDPS_SpecificHumidity_IsbL-0550_RLatLon0.09_PT030H.grib2 2026-05-06 08:49 556K
20260506T06Z_MSC_RDPS_SpecificHumidity_IsbL-0600_RLatLon0.09_PT030H.grib2 2026-05-06 08:49 625K
20260506T06Z_MSC_RDPS_SpecificHumidity_IsbL-0650_RLatLon0.09_PT030H.grib2 2026-05-06 08:49 537K
20260506T06Z_MSC_RDPS_SpecificHumidity_IsbL-0700_RLatLon0.09_PT030H.grib2 2026-05-06 08:49 579K
20260506T06Z_MSC_RDPS_SpecificHumidity_IsbL-0750_RLatLon0.09_PT030H.grib2 2026-05-06 08:49 640K
20260506T06Z_MSC_RDPS_SpecificHumidity_IsbL-0800_RLatLon0.09_PT030H.grib2 2026-05-06 08:49 735K
20260506T06Z_MSC_RDPS_SpecificHumidity_IsbL-0850_RLatLon0.09_PT030H.grib2 2026-05-06 08:49 813K
20260506T06Z_MSC_RDPS_SpecificHumidity_IsbL-0875_RLatLon0.09_PT030H.grib2 2026-05-06 08:49 837K
20260506T06Z_MSC_RDPS_SpecificHumidity_IsbL-0900_RLatLon0.09_PT030H.grib2 2026-05-06 08:49 848K
20260506T06Z_MSC_RDPS_SpecificHumidity_IsbL-0925_RLatLon0.09_PT030H.grib2 2026-05-06 08:49 853K
20260506T06Z_MSC_RDPS_SpecificHumidity_IsbL-0950_RLatLon0.09_PT030H.grib2 2026-05-06 08:49 852K
20260506T06Z_MSC_RDPS_SpecificHumidity_IsbL-0970_RLatLon0.09_PT030H.grib2 2026-05-06 08:49 846K
20260506T06Z_MSC_RDPS_SpecificHumidity_IsbL-0985_RLatLon0.09_PT030H.grib2 2026-05-06 08:49 699K
20260506T06Z_MSC_RDPS_SpecificHumidity_IsbL-1000_RLatLon0.09_PT030H.grib2 2026-05-06 08:49 695K
20260506T06Z_MSC_RDPS_SpecificHumidity_IsbL-1015_RLatLon0.09_PT030H.grib2 2026-05-06 08:49 683K
20260506T06Z_MSC_RDPS_SpecificHumidity_Sfc_RLatLon0.09_PT030H.grib2 2026-05-06 08:49 303K
20260506T06Z_MSC_RDPS_StormRelativeHelicity_EtaL-10000_RLatLon0.09_PT030H.grib2 2026-05-06 08:49 1.1M
20260506T06Z_MSC_RDPS_StormSeverityIndex_EtaL-10000_RLatLon0.09_PT030H.grib2 2026-05-06 08:49 1.2M
20260506T06Z_MSC_RDPS_Thickness_IsbL-0850to0700_RLatLon0.09_PT030H.grib2 2026-05-06 08:49 245K
20260506T06Z_MSC_RDPS_Thickness_IsbL-1000to0500_RLatLon0.09_PT030H.grib2 2026-05-06 08:49 190K
20260506T06Z_MSC_RDPS_Thickness_IsbL-1000to0850_RLatLon0.09_PT030H.grib2 2026-05-06 08:49 261K
20260506T06Z_MSC_RDPS_TotalCloudCover_Sfc_RLatLon0.09_PT030H.grib2 2026-05-06 08:49 678K
20260506T06Z_MSC_RDPS_TotalTotalsIndex_Sfc_RLatLon0.09_PT030H.grib2 2026-05-06 08:49 2.4M
20260506T06Z_MSC_RDPS_UVIndex-ClearSky_Sfc_RLatLon0.09_PT030H.grib2 2026-05-06 08:49 149K
20260506T06Z_MSC_RDPS_UVIndex_Sfc_RLatLon0.09_PT030H.grib2 2026-05-06 08:49 363K
20260506T06Z_MSC_RDPS_UpwardLongwaveRadiationFlux_NTAtm_RLatLon0.09_PT030H.grib2 2026-05-06 08:49 487K
20260506T06Z_MSC_RDPS_UpwardShortwaveRadiationFlux_NTAtm_RLatLon0.09_PT030H.grib2 2026-05-06 08:49 323K
20260506T06Z_MSC_RDPS_VerticalVelocity_IsbL-0250_RLatLon0.09_PT030H.grib2 2026-05-06 08:49 719K
20260506T06Z_MSC_RDPS_VerticalVelocity_IsbL-0500_RLatLon0.09_PT030H.grib2 2026-05-06 08:49 540K
20260506T06Z_MSC_RDPS_VerticalVelocity_IsbL-0700_RLatLon0.09_PT030H.grib2 2026-05-06 08:49 585K
20260506T06Z_MSC_RDPS_VerticalVelocity_IsbL-0850_RLatLon0.09_PT030H.grib2 2026-05-06 08:49 693K
20260506T06Z_MSC_RDPS_VerticalWindShear_EtaL-6500_RLatLon0.09_PT030H.grib2 2026-05-06 08:49 1.2M
20260506T06Z_MSC_RDPS_WindChill_Sfc_RLatLon0.09_PT030H.grib2 2026-05-06 08:49 1.2M
20260506T06Z_MSC_RDPS_WindDir_AGL-10m_RLatLon0.09_PT030H.grib2 2026-05-06 08:49 1.0M
20260506T06Z_MSC_RDPS_WindDir_AGL-120m_RLatLon0.09_PT030H.grib2 2026-05-06 08:49 627K
20260506T06Z_MSC_RDPS_WindDir_AGL-40m_RLatLon0.09_PT030H.grib2 2026-05-06 08:49 661K
20260506T06Z_MSC_RDPS_WindDir_AGL-80m_RLatLon0.09_PT030H.grib2 2026-05-06 08:49 640K
20260506T06Z_MSC_RDPS_WindDir_IsbL-0001_RLatLon0.09_PT030H.grib2 2026-05-06 08:49 298K
20260506T06Z_MSC_RDPS_WindDir_IsbL-0005_RLatLon0.09_PT030H.grib2 2026-05-06 08:49 380K
20260506T06Z_MSC_RDPS_WindDir_IsbL-0010_RLatLon0.09_PT030H.grib2 2026-05-06 08:49 388K
20260506T06Z_MSC_RDPS_WindDir_IsbL-0020_RLatLon0.09_PT030H.grib2 2026-05-06 08:49 402K
20260506T06Z_MSC_RDPS_WindDir_IsbL-0030_RLatLon0.09_PT030H.grib2 2026-05-06 08:49 408K
20260506T06Z_MSC_RDPS_WindDir_IsbL-0050_RLatLon0.09_PT030H.grib2 2026-05-06 08:49 432K
20260506T06Z_MSC_RDPS_WindDir_IsbL-0100_RLatLon0.09_PT030H.grib2 2026-05-06 08:49 415K
20260506T06Z_MSC_RDPS_WindDir_IsbL-0150_RLatLon0.09_PT030H.grib2 2026-05-06 08:49 413K
20260506T06Z_MSC_RDPS_WindDir_IsbL-0175_RLatLon0.09_PT030H.grib2 2026-05-06 08:49 434K
20260506T06Z_MSC_RDPS_WindDir_IsbL-0200_RLatLon0.09_PT030H.grib2 2026-05-06 08:49 453K
20260506T06Z_MSC_RDPS_WindDir_IsbL-0225_RLatLon0.09_PT030H.grib2 2026-05-06 08:49 457K
20260506T06Z_MSC_RDPS_WindDir_IsbL-0250_RLatLon0.09_PT030H.grib2 2026-05-06 08:49 457K
20260506T06Z_MSC_RDPS_WindDir_IsbL-0275_RLatLon0.09_PT030H.grib2 2026-05-06 08:49 477K
20260506T06Z_MSC_RDPS_WindDir_IsbL-0300_RLatLon0.09_PT030H.grib2 2026-05-06 08:49 473K
20260506T06Z_MSC_RDPS_WindDir_IsbL-0350_RLatLon0.09_PT030H.grib2 2026-05-06 08:49 495K
20260506T06Z_MSC_RDPS_WindDir_IsbL-0400_RLatLon0.09_PT030H.grib2 2026-05-06 08:49 505K
20260506T06Z_MSC_RDPS_WindDir_IsbL-0450_RLatLon0.09_PT030H.grib2 2026-05-06 08:49 522K
20260506T06Z_MSC_RDPS_WindDir_IsbL-0500_RLatLon0.09_PT030H.grib2 2026-05-06 08:49 548K
20260506T06Z_MSC_RDPS_WindDir_IsbL-0550_RLatLon0.09_PT030H.grib2 2026-05-06 08:49 561K
20260506T06Z_MSC_RDPS_WindDir_IsbL-0600_RLatLon0.09_PT030H.grib2 2026-05-06 08:49 586K
20260506T06Z_MSC_RDPS_WindDir_IsbL-0650_RLatLon0.09_PT030H.grib2 2026-05-06 08:49 631K
20260506T06Z_MSC_RDPS_WindDir_IsbL-0700_RLatLon0.09_PT030H.grib2 2026-05-06 08:49 676K
20260506T06Z_MSC_RDPS_WindDir_IsbL-0750_RLatLon0.09_PT030H.grib2 2026-05-06 08:49 729K
20260506T06Z_MSC_RDPS_WindDir_IsbL-0800_RLatLon0.09_PT030H.grib2 2026-05-06 08:49 798K
20260506T06Z_MSC_RDPS_WindDir_IsbL-0850_RLatLon0.09_PT030H.grib2 2026-05-06 08:49 874K
20260506T06Z_MSC_RDPS_WindDir_IsbL-0875_RLatLon0.09_PT030H.grib2 2026-05-06 08:49 906K
20260506T06Z_MSC_RDPS_WindDir_IsbL-0900_RLatLon0.09_PT030H.grib2 2026-05-06 08:49 922K
20260506T06Z_MSC_RDPS_WindDir_IsbL-0925_RLatLon0.09_PT030H.grib2 2026-05-06 08:49 934K
20260506T06Z_MSC_RDPS_WindDir_IsbL-0950_RLatLon0.09_PT030H.grib2 2026-05-06 08:49 938K
20260506T06Z_MSC_RDPS_WindDir_IsbL-0970_RLatLon0.09_PT030H.grib2 2026-05-06 08:49 944K
20260506T06Z_MSC_RDPS_WindDir_IsbL-0985_RLatLon0.09_PT030H.grib2 2026-05-06 08:49 953K
20260506T06Z_MSC_RDPS_WindDir_IsbL-1000_RLatLon0.09_PT030H.grib2 2026-05-06 08:49 969K
20260506T06Z_MSC_RDPS_WindDir_IsbL-1015_RLatLon0.09_PT030H.grib2 2026-05-06 08:49 1.0M
20260506T06Z_MSC_RDPS_WindGust-Max_AGL-10m_RLatLon0.09_PT030H.grib2 2026-05-06 08:49 1.0M
20260506T06Z_MSC_RDPS_WindGust-Min_AGL-10m_RLatLon0.09_PT030H.grib2 2026-05-06 08:49 971K
20260506T06Z_MSC_RDPS_WindGust_AGL-10m_RLatLon0.09_PT030H.grib2 2026-05-06 08:49 1.0M
20260506T06Z_MSC_RDPS_WindSpeed_AGL-10m_RLatLon0.09_PT030H.grib2 2026-05-06 08:49 848K
20260506T06Z_MSC_RDPS_WindSpeed_AGL-120m_RLatLon0.09_PT030H.grib2 2026-05-06 08:49 547K
20260506T06Z_MSC_RDPS_WindSpeed_AGL-40m_RLatLon0.09_PT030H.grib2 2026-05-06 08:49 547K
20260506T06Z_MSC_RDPS_WindSpeed_AGL-80m_RLatLon0.09_PT030H.grib2 2026-05-06 08:49 547K
20260506T06Z_MSC_RDPS_WindSpeed_IsbL-0001_RLatLon0.09_PT030H.grib2 2026-05-06 08:49 254K
20260506T06Z_MSC_RDPS_WindSpeed_IsbL-0005_RLatLon0.09_PT030H.grib2 2026-05-06 08:49 383K
20260506T06Z_MSC_RDPS_WindSpeed_IsbL-0010_RLatLon0.09_PT030H.grib2 2026-05-06 08:49 399K
20260506T06Z_MSC_RDPS_WindSpeed_IsbL-0020_RLatLon0.09_PT030H.grib2 2026-05-06 08:49 421K
20260506T06Z_MSC_RDPS_WindSpeed_IsbL-0030_RLatLon0.09_PT030H.grib2 2026-05-06 08:49 319K
20260506T06Z_MSC_RDPS_WindSpeed_IsbL-0050_RLatLon0.09_PT030H.grib2 2026-05-06 08:49 344K
20260506T06Z_MSC_RDPS_WindSpeed_IsbL-0100_RLatLon0.09_PT030H.grib2 2026-05-06 08:49 469K
20260506T06Z_MSC_RDPS_WindSpeed_IsbL-0150_RLatLon0.09_PT030H.grib2 2026-05-06 08:49 397K
20260506T06Z_MSC_RDPS_WindSpeed_IsbL-0175_RLatLon0.09_PT030H.grib2 2026-05-06 08:49 418K
20260506T06Z_MSC_RDPS_WindSpeed_IsbL-0200_RLatLon0.09_PT030H.grib2 2026-05-06 08:49 434K
20260506T06Z_MSC_RDPS_WindSpeed_IsbL-0225_RLatLon0.09_PT030H.grib2 2026-05-06 08:49 438K
20260506T06Z_MSC_RDPS_WindSpeed_IsbL-0250_RLatLon0.09_PT030H.grib2 2026-05-06 08:49 439K
20260506T06Z_MSC_RDPS_WindSpeed_IsbL-0275_RLatLon0.09_PT030H.grib2 2026-05-06 08:49 455K
20260506T06Z_MSC_RDPS_WindSpeed_IsbL-0300_RLatLon0.09_PT030H.grib2 2026-05-06 08:49 453K
20260506T06Z_MSC_RDPS_WindSpeed_IsbL-0350_RLatLon0.09_PT030H.grib2 2026-05-06 08:49 468K
20260506T06Z_MSC_RDPS_WindSpeed_IsbL-0400_RLatLon0.09_PT030H.grib2 2026-05-06 08:49 472K
20260506T06Z_MSC_RDPS_WindSpeed_IsbL-0450_RLatLon0.09_PT030H.grib2 2026-05-06 08:49 456K
20260506T06Z_MSC_RDPS_WindSpeed_IsbL-0500_RLatLon0.09_PT030H.grib2 2026-05-06 08:49 574K
20260506T06Z_MSC_RDPS_WindSpeed_IsbL-0550_RLatLon0.09_PT030H.grib2 2026-05-06 08:49 575K
20260506T06Z_MSC_RDPS_WindSpeed_IsbL-0600_RLatLon0.09_PT030H.grib2 2026-05-06 08:49 583K
20260506T06Z_MSC_RDPS_WindSpeed_IsbL-0650_RLatLon0.09_PT030H.grib2 2026-05-06 08:49 647K
20260506T06Z_MSC_RDPS_WindSpeed_IsbL-0700_RLatLon0.09_PT030H.grib2 2026-05-06 08:49 671K
20260506T06Z_MSC_RDPS_WindSpeed_IsbL-0750_RLatLon0.09_PT030H.grib2 2026-05-06 08:49 706K
20260506T06Z_MSC_RDPS_WindSpeed_IsbL-0800_RLatLon0.09_PT030H.grib2 2026-05-06 08:49 761K
20260506T06Z_MSC_RDPS_WindSpeed_IsbL-0850_RLatLon0.09_PT030H.grib2 2026-05-06 08:49 822K
20260506T06Z_MSC_RDPS_WindSpeed_IsbL-0875_RLatLon0.09_PT030H.grib2 2026-05-06 08:49 846K
20260506T06Z_MSC_RDPS_WindSpeed_IsbL-0900_RLatLon0.09_PT030H.grib2 2026-05-06 08:49 858K
20260506T06Z_MSC_RDPS_WindSpeed_IsbL-0925_RLatLon0.09_PT030H.grib2 2026-05-06 08:49 870K
20260506T06Z_MSC_RDPS_WindSpeed_IsbL-0950_RLatLon0.09_PT030H.grib2 2026-05-06 08:49 868K
20260506T06Z_MSC_RDPS_WindSpeed_IsbL-0970_RLatLon0.09_PT030H.grib2 2026-05-06 08:49 866K
20260506T06Z_MSC_RDPS_WindSpeed_IsbL-0985_RLatLon0.09_PT030H.grib2 2026-05-06 08:49 860K
20260506T06Z_MSC_RDPS_WindSpeed_IsbL-1000_RLatLon0.09_PT030H.grib2 2026-05-06 08:49 856K
20260506T06Z_MSC_RDPS_WindSpeed_IsbL-1015_RLatLon0.09_PT030H.grib2 2026-05-06 08:49 847K
20260506T06Z_MSC_RDPS_WindU_AGL-10m_RLatLon0.09_PT030H.grib2 2026-05-06 08:49 438K
20260506T06Z_MSC_RDPS_WindU_AGL-120m_RLatLon0.09_PT030H.grib2 2026-05-06 08:49 543K
20260506T06Z_MSC_RDPS_WindU_AGL-40m_RLatLon0.09_PT030H.grib2 2026-05-06 08:49 546K
20260506T06Z_MSC_RDPS_WindU_AGL-80m_RLatLon0.09_PT030H.grib2 2026-05-06 08:49 544K
20260506T06Z_MSC_RDPS_WindU_IsbL-0001_RLatLon0.09_PT030H.grib2 2026-05-06 08:49 296K
20260506T06Z_MSC_RDPS_WindU_IsbL-0005_RLatLon0.09_PT030H.grib2 2026-05-06 08:49 330K
20260506T06Z_MSC_RDPS_WindU_IsbL-0010_RLatLon0.09_PT030H.grib2 2026-05-06 08:49 299K
20260506T06Z_MSC_RDPS_WindU_IsbL-0020_RLatLon0.09_PT030H.grib2 2026-05-06 08:49 317K
20260506T06Z_MSC_RDPS_WindU_IsbL-0030_RLatLon0.09_PT030H.grib2 2026-05-06 08:49 351K
20260506T06Z_MSC_RDPS_WindU_IsbL-0050_RLatLon0.09_PT030H.grib2 2026-05-06 08:49 375K
20260506T06Z_MSC_RDPS_WindU_IsbL-0100_RLatLon0.09_PT030H.grib2 2026-05-06 08:49 425K
20260506T06Z_MSC_RDPS_WindU_IsbL-0150_RLatLon0.09_PT030H.grib2 2026-05-06 08:49 391K
20260506T06Z_MSC_RDPS_WindU_IsbL-0175_RLatLon0.09_PT030H.grib2 2026-05-06 08:49 412K
20260506T06Z_MSC_RDPS_WindU_IsbL-0200_RLatLon0.09_PT030H.grib2 2026-05-06 08:49 332K
20260506T06Z_MSC_RDPS_WindU_IsbL-0225_RLatLon0.09_PT030H.grib2 2026-05-06 08:49 333K
20260506T06Z_MSC_RDPS_WindU_IsbL-0250_RLatLon0.09_PT030H.grib2 2026-05-06 08:49 333K
20260506T06Z_MSC_RDPS_WindU_IsbL-0275_RLatLon0.09_PT030H.grib2 2026-05-06 08:49 346K
20260506T06Z_MSC_RDPS_WindU_IsbL-0300_RLatLon0.09_PT030H.grib2 2026-05-06 08:49 344K
20260506T06Z_MSC_RDPS_WindU_IsbL-0350_RLatLon0.09_PT030H.grib2 2026-05-06 08:49 355K
20260506T06Z_MSC_RDPS_WindU_IsbL-0400_RLatLon0.09_PT030H.grib2 2026-05-06 08:49 460K
20260506T06Z_MSC_RDPS_WindU_IsbL-0450_RLatLon0.09_PT030H.grib2 2026-05-06 08:49 461K
20260506T06Z_MSC_RDPS_WindU_IsbL-0500_RLatLon0.09_PT030H.grib2 2026-05-06 08:49 462K
20260506T06Z_MSC_RDPS_WindU_IsbL-0550_RLatLon0.09_PT030H.grib2 2026-05-06 08:49 463K
20260506T06Z_MSC_RDPS_WindU_IsbL-0600_RLatLon0.09_PT030H.grib2 2026-05-06 08:49 453K
20260506T06Z_MSC_RDPS_WindU_IsbL-0650_RLatLon0.09_PT030H.grib2 2026-05-06 08:49 472K
20260506T06Z_MSC_RDPS_WindU_IsbL-0700_RLatLon0.09_PT030H.grib2 2026-05-06 08:49 495K
20260506T06Z_MSC_RDPS_WindU_IsbL-0750_RLatLon0.09_PT030H.grib2 2026-05-06 08:49 540K
20260506T06Z_MSC_RDPS_WindU_IsbL-0800_RLatLon0.09_PT030H.grib2 2026-05-06 08:49 574K
20260506T06Z_MSC_RDPS_WindU_IsbL-0850_RLatLon0.09_PT030H.grib2 2026-05-06 08:49 629K
20260506T06Z_MSC_RDPS_WindU_IsbL-0875_RLatLon0.09_PT030H.grib2 2026-05-06 08:49 648K
20260506T06Z_MSC_RDPS_WindU_IsbL-0900_RLatLon0.09_PT030H.grib2 2026-05-06 08:49 658K
20260506T06Z_MSC_RDPS_WindU_IsbL-0925_RLatLon0.09_PT030H.grib2 2026-05-06 08:49 666K
20260506T06Z_MSC_RDPS_WindU_IsbL-0950_RLatLon0.09_PT030H.grib2 2026-05-06 08:49 664K
20260506T06Z_MSC_RDPS_WindU_IsbL-0970_RLatLon0.09_PT030H.grib2 2026-05-06 08:49 661K
20260506T06Z_MSC_RDPS_WindU_IsbL-0985_RLatLon0.09_PT030H.grib2 2026-05-06 08:49 798K
20260506T06Z_MSC_RDPS_WindU_IsbL-1000_RLatLon0.09_PT030H.grib2 2026-05-06 08:49 794K
20260506T06Z_MSC_RDPS_WindU_IsbL-1015_RLatLon0.09_PT030H.grib2 2026-05-06 08:49 789K
20260506T06Z_MSC_RDPS_WindV_AGL-10m_RLatLon0.09_PT030H.grib2 2026-05-06 08:49 433K
20260506T06Z_MSC_RDPS_WindV_AGL-120m_RLatLon0.09_PT030H.grib2 2026-05-06 08:49 540K
20260506T06Z_MSC_RDPS_WindV_AGL-40m_RLatLon0.09_PT030H.grib2 2026-05-06 08:49 541K
20260506T06Z_MSC_RDPS_WindV_AGL-80m_RLatLon0.09_PT030H.grib2 2026-05-06 08:49 541K
20260506T06Z_MSC_RDPS_WindV_IsbL-0001_RLatLon0.09_PT030H.grib2 2026-05-06 08:49 248K
20260506T06Z_MSC_RDPS_WindV_IsbL-0005_RLatLon0.09_PT030H.grib2 2026-05-06 08:49 288K
20260506T06Z_MSC_RDPS_WindV_IsbL-0010_RLatLon0.09_PT030H.grib2 2026-05-06 08:49 299K
20260506T06Z_MSC_RDPS_WindV_IsbL-0020_RLatLon0.09_PT030H.grib2 2026-05-06 08:49 319K
20260506T06Z_MSC_RDPS_WindV_IsbL-0030_RLatLon0.09_PT030H.grib2 2026-05-06 08:49 313K
20260506T06Z_MSC_RDPS_WindV_IsbL-0050_RLatLon0.09_PT030H.grib2 2026-05-06 08:49 339K
20260506T06Z_MSC_RDPS_WindV_IsbL-0100_RLatLon0.09_PT030H.grib2 2026-05-06 08:49 421K
20260506T06Z_MSC_RDPS_WindV_IsbL-0150_RLatLon0.09_PT030H.grib2 2026-05-06 08:49 387K
20260506T06Z_MSC_RDPS_WindV_IsbL-0175_RLatLon0.09_PT030H.grib2 2026-05-06 08:49 410K
20260506T06Z_MSC_RDPS_WindV_IsbL-0200_RLatLon0.09_PT030H.grib2 2026-05-06 08:49 330K
20260506T06Z_MSC_RDPS_WindV_IsbL-0225_RLatLon0.09_PT030H.grib2 2026-05-06 08:49 332K
20260506T06Z_MSC_RDPS_WindV_IsbL-0250_RLatLon0.09_PT030H.grib2 2026-05-06 08:49 331K
20260506T06Z_MSC_RDPS_WindV_IsbL-0275_RLatLon0.09_PT030H.grib2 2026-05-06 08:49 344K
20260506T06Z_MSC_RDPS_WindV_IsbL-0300_RLatLon0.09_PT030H.grib2 2026-05-06 08:49 342K
20260506T06Z_MSC_RDPS_WindV_IsbL-0350_RLatLon0.09_PT030H.grib2 2026-05-06 08:49 353K
20260506T06Z_MSC_RDPS_WindV_IsbL-0400_RLatLon0.09_PT030H.grib2 2026-05-06 08:49 457K
20260506T06Z_MSC_RDPS_WindV_IsbL-0450_RLatLon0.09_PT030H.grib2 2026-05-06 08:49 459K
20260506T06Z_MSC_RDPS_WindV_IsbL-0500_RLatLon0.09_PT030H.grib2 2026-05-06 08:49 461K
20260506T06Z_MSC_RDPS_WindV_IsbL-0550_RLatLon0.09_PT030H.grib2 2026-05-06 08:49 461K
20260506T06Z_MSC_RDPS_WindV_IsbL-0600_RLatLon0.09_PT030H.grib2 2026-05-06 08:49 469K
20260506T06Z_MSC_RDPS_WindV_IsbL-0650_RLatLon0.09_PT030H.grib2 2026-05-06 08:49 485K
20260506T06Z_MSC_RDPS_WindV_IsbL-0700_RLatLon0.09_PT030H.grib2 2026-05-06 08:49 505K
20260506T06Z_MSC_RDPS_WindV_IsbL-0750_RLatLon0.09_PT030H.grib2 2026-05-06 08:49 521K
20260506T06Z_MSC_RDPS_WindV_IsbL-0800_RLatLon0.09_PT030H.grib2 2026-05-06 08:49 580K
20260506T06Z_MSC_RDPS_WindV_IsbL-0850_RLatLon0.09_PT030H.grib2 2026-05-06 08:49 633K
20260506T06Z_MSC_RDPS_WindV_IsbL-0875_RLatLon0.09_PT030H.grib2 2026-05-06 08:49 646K
20260506T06Z_MSC_RDPS_WindV_IsbL-0900_RLatLon0.09_PT030H.grib2 2026-05-06 08:49 656K
20260506T06Z_MSC_RDPS_WindV_IsbL-0925_RLatLon0.09_PT030H.grib2 2026-05-06 08:49 663K
20260506T06Z_MSC_RDPS_WindV_IsbL-0950_RLatLon0.09_PT030H.grib2 2026-05-06 08:49 663K
20260506T06Z_MSC_RDPS_WindV_IsbL-0970_RLatLon0.09_PT030H.grib2 2026-05-06 08:49 658K
20260506T06Z_MSC_RDPS_WindV_IsbL-0985_RLatLon0.09_PT030H.grib2 2026-05-06 08:49 794K
20260506T06Z_MSC_RDPS_WindV_IsbL-1000_RLatLon0.09_PT030H.grib2 2026-05-06 08:49 790K
20260506T06Z_MSC_RDPS_WindV_IsbL-1015_RLatLon0.09_PT030H.grib2 2026-05-06 08:49 829K